Location: *
(50.1750°N, 2.7339°E)
Time: 10:39:47
(UTC+00:00)

Daily predictions for brighter satellites

Satellite Brightness Start Highest point End
(mag) Time Altitude Azimuth Time Altitude Azimuth Time Altitude Azimuth
Gbstr 26 Del rocket 4.0 17:21:25 10° W 17:27:04 78° N 17:34:07 10° E
Cosmos 2263 Rocket 2.7 17:26:23 10° SW 17:32:02 67° WNW 17:37:41 10° NNE
Okean-O 2.9 17:29:41 10° S 17:34:06 77° WSW 17:38:35 10° NNW
NOSS 2-1 (E) 4.4 17:29:06 10° NW 17:34:20 73° NE 17:41:39 10° SE
CSL-04 Rocket 4.0 17:29:10 10° SE 17:34:29 49° ENE 17:39:47 10° N
CZ-2D R/B 4.4 17:33:11 10° ESE 17:36:15 23° ENE 17:39:21 10° NNE
Cosmos 1271 Rocket 3.1 17:32:55 10° N 17:36:42 43° ENE 17:40:31 10° SE
Cosmos 1726 Rocket 4.3 17:33:10 10° SSE 17:37:01 30° E 17:40:52 10° NNE
Unknown 4.5 17:34:40 10° SSW 17:38:25 34° SE 17:42:11 10° ENE
BREEZE M DEB (TANK) 1.7 17:37:54 10° W 17:39:57 65° S 17:43:40 10° ESE
Starlink (trailer) 4.5 17:36:16 10° SSW 17:40:02 35° SE 17:43:49 10° ENE
Unknown 4.4 17:37:55 10° SSW 17:41:42 35° SE 17:45:31 10° ENE
Cosmos 1821 Rocket 4.0 17:35:59 10° N 17:42:04 65° ENE 17:48:09 10° SSE
Unknown 4.0 17:39:05 10° SW 17:42:57 45° SSE 17:46:49 10° ENE
Lacrosse 5 2.7 17:38:26 10° WNW 17:43:11 38° N 17:47:56 10° ENE
Unknown 4.4 17:39:30 10° SSW 17:43:20 36° SE 17:47:05 10° ENE
Cosmos 1953 2.6 17:40:17 10° SSE 17:44:11 48° E 17:48:07 10° NNE
Cosmos 2058 Rocket 4.1 17:40:45 10° SE 17:44:17 24° E 17:47:49 10° NNE
Cosmos 1833 Rocket 3.9 17:40:44 10° NNW 17:45:18 25° NE 17:49:45 10° E
Cosmos 1703 4.3 17:45:36 10° NNE 17:48:59 26° ENE 17:52:21 10° SE
Cosmos 1758 3.3 17:45:04 10° S 17:49:02 90° E 17:53:02 10° N
Unknown 4.3 17:46:03 10° SW 17:49:56 40° SE 17:53:28 12° ENE
Unknown 4.2 17:46:07 10° SW 17:50:00 40° SE 17:53:32 12° ENE
Unknown 4.2 17:46:54 10° SW 17:50:47 40° SE 17:54:18 12° ENE
Nadezhda 3 Rocket 4.0 17:44:53 10° S 17:51:03 65° E 17:57:21 10° NNE
COBE Rocket 4.0 17:45:55 10° NNE 17:51:08 71° ESE 17:56:15 10° S
H-2A R/B 4.4 17:49:07 10° SSW 17:52:47 40° W 17:56:30 10° NNW
Cosmos 1626 2.9 17:50:00 10° NNW 17:53:40 56° W 17:57:18 10° S
Cosmos 2228 3.3 17:49:54 10° SSE 17:54:05 46° E 17:58:16 10° NNE
Unknown 4.2 17:50:59 10° SW 17:54:54 43° SE 17:58:16 13° ENE
Unknown 4.1 17:51:00 10° SW 17:54:55 43° SE 17:58:16 13° ENE
COSMOS 2406 3.6 17:50:44 10° NNW 17:56:19 47° NE 18:01:52 10° SE
Unknown 4.1 17:52:41 10° SW 17:56:39 45° SSE 17:59:59 14° ENE
Cosmos 371 Rocket 4.4 17:53:32 10° SW 17:58:11 47° WNW 18:02:51 10° NNE
Cosmos 1934 Rocket 4.1 17:52:29 10° N 17:58:42 57° ENE 18:04:57 10° SSE
Unknown 4.0 17:55:58 10° SW 17:59:57 47° SSE 18:03:10 15° ENE
Envisat 3.3 17:55:14 10° S 18:00:18 73° WSW 18:05:25 10° NNW
Unknown 4.0 17:56:37 10° SW 18:00:35 46° SSE 18:03:46 15° ENE
Cosmos 2082 Rocket 3.5 17:56:01 10° NNW 18:00:36 24° NE 18:04:05 14° E
Unknown 4.0 17:57:34 10° SW 18:01:33 47° SSE 18:04:41 15° ENE
COSMO-SKYMED 1 2.5 17:57:18 10° NNE 18:01:40 71° ESE 18:06:00 10° S
Cosmos 1726 2.9 18:00:42 10° SSE 18:03:54 29° E 18:07:06 10° NNE
Cosmos 304 Rocket 3.8 17:59:22 10° SSW 18:04:11 84° WNW 18:09:02 10° NNE
Unknown 4.0 18:00:46 10° SW 18:04:45 48° SSE 18:07:45 17° ENE
FengYun 1-2 T 4.4 17:59:56 10° SSE 18:05:36 83° WSW 18:11:16 10° NNW
ATLAS CENTAUR R/B 4.0 18:02:49 10° NW 18:05:43 16° NNW 18:08:34 10° NNE
Cosmos 1939 Rocket 3.2 18:02:32 10° SE 18:06:15 41° ENE 18:10:04 10° N
Cosmos 921 Rocket 3.6 18:02:10 10° SSE 18:06:18 37° ESE 18:10:26 10° NE
Unknown 3.9 18:04:08 10° SW 18:08:09 51° SSE 18:11:02 18° ENE
Unknown 3.9 18:05:46 10° SW 18:09:48 52° SSE 18:12:38 18° ENE
Unknown 3.8 18:07:27 10° SW 18:11:30 54° SSE 18:14:16 19° ENE
Unknown 3.8 18:09:06 10° SW 18:13:09 55° SSE 18:15:52 20° ENE
CSL-04 Debris 4.2 18:07:49 10° SSE 18:13:16 87° WSW 18:18:48 10° NNW
Cosmos 1356 4.1 18:11:01 10° SSE 18:14:05 31° E 18:17:11 10° NNE
Lacrosse 5 rocket 1.6 18:10:24 10° WNW 18:14:06 61° SW 18:17:43 12° SE
Cosmos 1825 Rocket 4.2 18:10:25 10° NNW 18:14:43 60° W 18:19:02 10° S
Cosmos 1953 Rocket 3.6 18:10:52 10° N 18:15:18 85° W 18:19:40 10° S
Unknown 3.8 18:12:22 10° SW 18:16:26 58° SSE 18:19:02 21° ENE
USA 116 3.1 18:14:36 10° NNE 18:17:41 61° ESE 18:20:51 10° S
Unknown 3.7 18:14:03 10° SW 18:18:08 59° SSE 18:20:40 22° ENE
Unknown 3.7 18:15:42 10° SW 18:19:46 60° SSE 18:22:15 22° ENE
Cosmos 2084 3.7 18:16:24 10° SSW 18:20:47 50° SE 18:24:06 16° ENE
Unknown 3.7 18:17:17 10° SW 18:21:22 60° SSE 18:23:47 23° ENE
Unknown 3.7 18:17:56 10° SW 18:22:01 62° SSE 18:24:25 23° ENE
CZ-4 R/B 2.3 18:19:10 10° S 18:23:14 54° W 18:27:23 10° NNW
Unknown 3.7 18:20:29 10° SW 18:24:34 60° SSE 18:26:49 25° ENE
FALCON 9 DEB 3.7 18:21:17 10° WNW 18:24:41 51° N 18:26:23 26° ENE
Unknown 3.7 18:21:48 10° W 18:25:16 52° N 18:27:00 25° ENE
Cosmos 1242 Rocket 2.5 18:23:00 10° N 18:26:43 81° ENE 18:30:24 10° SSE
Meteor 1-16 Rocket 4.1 18:22:04 10° S 18:27:38 71° E 18:33:04 10° NNE
Unknown 3.7 18:23:49 10° SW 18:27:55 63° SSE 18:30:02 27° ENE
Cosmos 1328 3.7 18:24:39 10° N 18:28:42 77° E 18:32:39 10° SSE
Unknown 3.6 18:25:29 10° SW 18:29:34 64° SSE 18:31:39 28° ENE
Unknown 3.5 18:26:21 10° WSW 18:30:15 78° NNW 18:32:18 27° ENE
ADEOS Rocket 4.3 18:23:50 10° NNE 18:30:15 27° E 18:36:25 10° SE
Unknown 2.4 18:28:08 10° WNW 18:30:48 83° SSW 18:31:23 50° ESE
Cosmos 1844 Rocket 2.7 18:25:17 10° SSW 18:30:57 87° ESE 18:36:38 10° NNE
Unknown 3.6 18:27:18 10° SW 18:31:25 70° SSE 18:33:29 28° ENE
Cosmos 1606 Rocket 4.0 18:27:33 10° SSW 18:31:56 65° WNW 18:36:18 10° N
Unknown 3.6 18:28:44 10° SW 18:32:50 67° SSE 18:34:48 29° ENE
Cosmos 1908 3.5 18:30:25 10° SSE 18:34:09 44° E 18:37:53 10° NNE
Unknown 3.6 18:30:25 10° SW 18:34:32 69° SSE 18:36:26 31° ENE
Unknown 3.5 18:31:06 10° W 18:34:56 69° NNW 18:36:44 29° ENE
Unknown 3.6 18:33:15 10° W 18:36:57 60° N 18:38:33 31° ENE
Unknown 3.6 18:33:39 10° WSW 18:37:46 71° SSE 18:39:32 33° ENE
ASTEX 1 3.9 18:33:49 10° N 18:38:42 63° W 18:43:35 10° SSW
Unknown 3.5 18:35:24 10° WSW 18:39:32 73° SSE 18:41:14 34° ENE
Unknown 3.6 18:37:06 10° WNW 18:40:27 51° N 18:41:24 38° NE
Unknown 3.5 18:37:03 10° WSW 18:41:11 74° SSE 18:42:48 35° ENE
SPOT 3 Rocket 4.1 18:39:51 27° ESE 18:41:54 38° ENE 18:46:41 10° N
Meteor 2-10 3.8 18:36:59 10° S 18:42:04 72° E 18:47:06 10° NNE
Ariane Rocket 2.9 18:37:43 10° SSE 18:42:49 86° ENE 18:47:58 10° NNW
Unknown 3.5 18:38:44 10° WSW 18:42:52 75° SSE 18:44:26 36° ENE
Cosmos 2278 Rocket 2.8 18:39:36 10° SSE 18:44:34 32° ESE 18:46:34 26° ENE
Unknown 3.5 18:42:02 10° WSW 18:46:11 78° SSE 18:47:37 39° ENE
Cosmos 489 Rocket 4.4 18:40:27 10° S 18:46:31 58° ESE 18:52:36 10° NNE
SWAS 4.3 18:42:31 10° SSW 18:46:47 73° ESE 18:50:17 15° NE
Cosmos 1844 3.7 18:41:33 10° SSW 18:47:17 89° WNW 18:53:07 10° NNE
Unknown 3.5 18:43:47 10° WSW 18:47:55 81° SSE 18:49:19 41° ENE
Falcon 9 debris 3.5 18:44:37 10° WNW 18:48:01 52° N 18:48:41 44° NE
Unknown 3.5 18:43:59 10° WSW 18:48:08 85° SSE 18:49:34 40° ENE
Cosmos 2058 4.2 18:45:29 10° N 18:48:12 25° NE 18:48:12 25° NE
Unknown 3.6 18:45:46 10° WNW 18:49:14 52° N 18:49:56 43° NE
Unknown 3.5 18:45:34 10° WSW 18:49:44 85° SSE 18:51:06 42° ENE
Unknown 3.5 18:48:36 10° WSW 18:52:45 83° SSE 18:53:57 46° ENE
Unknown 3.5 18:51:57 10° WSW 18:56:06 86° SSE 18:57:09 49° ENE
USA 234 4.2 18:57:30 25° SE 18:57:30 25° SE 19:02:14 10° S
CZ-4C R/B 4.5 18:51:22 10° NW 18:57:48 34° WSW 19:04:54 10° S
Unknown 3.5 18:53:40 10° WSW 18:57:49 87° SSE 18:58:49 51° ENE
YAOGAN 1 4.4 18:54:25 10° SSW 18:58:19 32° W 19:02:15 10° NNW
Unknown 3.5 18:55:16 10° WSW 18:59:25 89° SSE 19:00:21 53° ENE
Cosmos 1777 Rocket 3.9 18:55:04 10° NNW 19:00:21 90° SW 19:03:37 23° SSE
H-2A R/B 2.4 18:59:39 39° ESE 19:00:55 46° ENE 19:06:02 10° N
Unknown 3.5 18:56:59 10° WSW 19:01:09 90° ESE 19:02:00 55° ENE
Unknown 3.0 18:58:44 10° WNW 19:01:36 72° NW 19:01:36 72° NW
SJ-11-01 4.2 18:59:52 30° SSE 19:02:09 71° ENE 19:06:51 10° N
ATLAS 5 CENTAUR R/B 2.4 18:59:01 10° WSW 19:03:18 51° NW 19:07:08 16° NE
USA 186 4.2 19:06:43 12° N 19:06:43 12° N 19:06:56 10° N
SL-4 R/B 3.8 19:03:05 10° W 19:05:56 20° SW 19:07:19 17° S
Unknown 3.5 19:03:27 10° WSW 19:07:34 81° NNW 19:08:10 63° NE
Unknown 3.5 19:03:36 10° WSW 19:07:46 85° NNW 19:08:22 64° ENE
Unknown 3.5 19:05:15 10° WSW 19:09:24 84° NNW 19:09:57 66° ENE
Unknown 3.5 19:06:57 10° WSW 19:11:07 83° NNW 19:11:35 69° NE
CZ-2C R/B 3.8 19:10:54 39° ENE 19:11:24 40° ENE 19:16:47 10° N
HJ-1C 4.3 19:10:36 27° SSW 19:12:06 49° W 19:15:25 10° NNW
Unknown 3.5 19:08:36 10° WSW 19:12:45 82° NNW 19:13:09 71° NE
FREGAT/IRIS 4.5 19:14:42 24° NNW 19:14:42 24° NNW 19:16:00 10° NNW
Unknown 3.5 19:10:14 10° WSW 19:14:23 81° NNW 19:14:43 73° NE
Gbstr 26 Del rocket 4.1 19:08:21 10° WNW 19:14:38 89° SSW 19:17:24 42° ESE
Cosmos 1076 Rocket 3.5 19:10:37 10° N 19:14:49 64° ENE 19:14:49 64° ENE
Cosmos 2084 Rocket 4.4 19:11:21 10° NW 19:15:23 36° NNE 19:15:23 36° NNE
Cosmos 1461 3.0 19:12:12 10° NW 19:15:58 59° NNE 19:15:58 59° NNE
Unknown 3.5 19:13:38 10° WSW 19:17:47 79° NNW 19:18:00 76° NNE
Cosmos 1339 Rocket 4.5 19:12:14 10° SSW 19:18:19 79° WNW 19:24:29 10° N
NOSS 3-3 (A) 4.5 19:11:12 10° NW 19:18:27 66° NE 19:21:23 41° ESE
Starlink (trailer) 3.6 19:15:16 10° WSW 19:19:25 78° NNW 19:19:33 77° N
Unknown 3.6 19:16:57 10° WSW 19:21:07 77° NNW 19:21:10 77° N
Cosmos 2058 Rocket 4.5 19:17:59 10° SW 19:22:05 38° WNW 19:26:11 10° N
Unknown 3.7 19:18:03 10° W 19:22:05 67° NNW 19:22:06 67° NNW
Unknown 3.6 19:18:35 10° WSW 19:22:44 76° NNW 19:22:44 76° NNW
SJ-6B 3.2 19:25:01 53° N 19:25:01 53° N 19:28:00 10° NNW
Lacrosse 5 1.8 19:21:44 10° WNW 19:26:48 67° NNE 19:27:11 64° NE
BREEZE-M DEB (TANK) 3.6 19:21:01 10° SW 19:27:40 38° S 19:27:40 38° S
Unknown 3.8 19:25:14 10° W 19:29:07 69° NW 19:29:07 69° NW
Unknown 3.8 19:25:19 10° W 19:29:11 69° NW 19:29:11 69° NW
Cosmos 1833 Rocket 2.6 19:24:16 10° NNW 19:29:55 82° WSW 19:31:27 50° SSE
Unknown 3.8 19:26:06 10° W 19:29:57 68° NW 19:29:57 68° NW
Cosmos 1459 Rocket 3.8 19:24:32 10° N 19:30:43 70° ENE 19:32:12 52° SE
Resurs 01 Rocket 3.0 19:35:40 28° NNE 19:35:40 28° NNE 19:38:02 10° N
Unknown 4.0 19:30:15 10° W 19:33:55 62° WNW 19:33:55 62° WNW
Unknown 4.0 19:30:16 10° W 19:33:55 62° WNW 19:33:55 62° WNW
ARGOS 3.0 19:34:28 68° SE 19:35:06 78° ENE 19:40:34 10° NNW
Cosmos 1727 Rocket 3.9 19:29:12 10° S 19:35:23 84° W 19:41:36 10° N
Unknown 4.1 19:32:02 10° W 19:35:38 60° WNW 19:35:38 60° WNW
Cosmos 1802 Rocket 4.0 19:31:36 10° N 19:38:02 67° ENE 19:38:55 60° ESE
Cosmos 1726 4.5 19:36:08 10° SW 19:39:09 23° WNW 19:42:09 10° NNW
Unknown 4.2 19:35:21 10° W 19:38:49 56° WNW 19:38:49 56° WNW
Unknown 4.2 19:35:59 10° W 19:39:24 55° WNW 19:39:24 55° WNW
Unknown 4.3 19:36:57 10° W 19:40:20 54° WNW 19:40:20 54° WNW
Cosmos 1898 Rocket 4.1 19:36:01 10° NNW 19:40:09 43° NNE 19:40:09 43° NNE
Unknown 4.4 19:40:10 10° W 19:43:24 50° WNW 19:43:24 50° WNW
Cosmos 2082 Rocket 2.1 19:39:42 10° NNW 19:45:28 87° WSW 19:45:57 76° SSE
ATLAS CENTAUR R/B 3.9 19:43:49 10° NNW 19:46:30 15° N 19:46:39 15° NNE
Cosmos 2173 Rocket 3.9 19:43:56 10° N 19:50:17 87° W 19:51:41 57° S
Lacrosse 5 rocket 4.0 19:51:29 10° WSW 19:52:37 11° SW 19:53:24 11° SW
SJ 16-02 3.3 19:52:59 10° N 19:54:38 21° N 19:54:38 21° N
Cosmos 1725 Rocket 4.1 19:59:29 10° N 20:04:50 62° NNE 20:04:50 62° NNE
Cosmos 2100 Rocket 4.3 20:00:01 10° NNW 20:06:11 64° W 20:07:49 47° SSW
Cosmos 1000 Rocket 4.4 20:12:39 81° WNW 20:12:39 81° WNW 20:18:47 10° N
ADEOS Rocket 3.6 20:08:40 10° NNE 20:16:30 79° WNW 20:23:55 10° SSW
Cosmos 2278 Rocket 2.9 20:22:55 10° SW 20:28:27 51° NW 20:28:36 51° NW
Cosmos 2016 Rocket 4.3 20:27:00 10° NNW 20:32:47 62° WNW 20:32:47 62° WNW
Cosmos 2061 Rocket 4.4 20:29:15 10° NNW 20:35:14 57° W 20:35:14 57° W
H-2A R/B 3.6 20:40:17 31° W 20:40:30 31° W 20:45:15 10° NNW
ATLAS 5 CENTAUR R/B 4.0 20:45:28 10° WNW 20:48:41 21° NNW 20:48:41 21° NNW
CZ-2C R/B 4.5 20:51:59 40° WNW 20:51:59 40° WNW 20:56:43 10° NNW
Lacrosse 5 4.3 21:04:57 10° WNW 21:06:22 18° WNW 21:06:22 18° WNW
